Simultaneous Nadir Overpasses (SNOs) Predictions

Prediction of SNOs between GOES-16 and NOAA-19 Satellite Orbit:

Table of predicted SNOs for the next 14.0 days since TLE Epoch: 3/1/2019
Index Date Time (GOES-16) GOES-16 Lat,Lon NOAA-19 Lat,Lon Distance(km) Time Diff (sec)
1 03/02/2019 09:44:55 0.01, -75.20 0.15, -75.82 70.93 80
2 03/03/2019 09:30:38 0.01, -75.20 -0.48, -72.98 252.76 80
3 03/05/2019 21:51:51 -0.01, -75.22 -0.66, -78.01 319.02 80
4 03/06/2019 21:42:54 -0.01, -75.23 -0.01, -75.17 5.64 80
5 03/07/2019 21:31:18 -0.01, -75.24 0.64, -72.34 329.94 80
6 03/10/2019 09:52:31 0.01, -75.27 0.48, -77.37 239.64 80
7 03/11/2019 09:38:14 0.01, -75.28 -0.17, -74.54 85.11 80
8 03/12/2019 09:26:38 0.00, -75.29 -0.81, -71.70 409.90 80
9 03/13/2019 21:59:25 -0.00, -75.31 -1.00, -79.55 484.26 80
10 03/14/2019 21:47:49 -0.00, -75.33 -0.35, -76.71 159.37 80




NCC Satellite Simultaneous Nadir Overpasses (SNOs) Prediction Service
